Regional Weather Roundup
Issued by NWS

Home | Current Version | Previous Version | Text Only | Print | Product List | Glossary On
Versions: 1 2 3 4 5 6 7 8 9 10 11 12 13 14 15 16 17 18 19 20 21 22 23 24 25 26 27 28 29 30 31 32 33 34 35 36 37 38 39 40 41 42 43 44 45 46 47 48 49 50
000
ASUS42 KFFC 170310
RWRGA
WEATHER ROUNDUP FOR GEORGIA
NATIONAL WEATHER SERVICE PEACHTREE CITY GA
1000 PM EST MON JAN 16 2017

NOTE: "FAIR" INDICATES FEW OR NO CLOUDS BELOW 12,000 FEET WITH NO
SIGNIFICANT WEATHER AND/OR OBSTRUCTIONS TO VISIBILITY.

* = USE WITH CAUTION. THE STATIONS MARKED WITH AN ASTERISK MAY NOT
REPORT WEATHER SUCH AS PRECIPITATION, FOG, OR THUNDER AND ARE NOT
QUALITY CONTROLLED BY NWS.

THE REMARK "TC" DENOTES TEMPERATURE READING IN DEGREES CELSIUS.

GAZ001>058-170400-
NORTH GEORGIA

CITY           SKY/WX    TMP DP  RH WIND       PRES   REMARKS
ATLANTA        PTCLDY    60  55  83 E9        30.25S
ATHENS         CLOUDY    56  55  97 E6        30.29R FOG
CHAMBLEE       CLEAR     56  52  86 VRB3      30.26S
PEACHTREE CITY CLEAR     53  51  93 CALM      30.25S
ROME           CLEAR     59  53  80 SE6       30.21F
WEST ATLANTA   PTCLDY    58  52  80 NE3       30.25S
CARTERSVILLE   CLEAR     57  53  86 E6        30.24F


CITY           SKY/WX    TMP DP  RH WIND       PRES   REMARKS
DALTON*        MOCLDY    57  54  88 S6        30.22F
MARIETTA       PTCLDY    57  53  86 E6        30.25S
KENNESAW*      PTCLDY    57  54  88 CALM        N/A
CANTON*        CLOUDY    55  50  82 E6        30.28S
$$

GAZ059>098-102>109-170400-
CENTRAL GEORGIA

CITY           SKY/WX    TMP DP  RH WIND       PRES   REMARKS
AUGUSTA-BUSH   CLOUDY    59  55  87 SE5       30.29F
AUGUSTA-DANIEL CLOUDY    59  54  83 SE7       30.29F
COLUMBUS       CLEAR     62  52  69 S5        30.22F
MACON          CLEAR     58  51  78 CALM      30.25S
ROBINS AFB     CLEAR     57  53  86 CALM      30.24S


CITY           SKY/WX    TMP DP  RH WIND       PRES   REMARKS
LAGRANGE*      CLEAR     62  58  88 CALM      30.23S
SYLVANIA*      CLOUDY   N/A N/A N/A SE5       30.31S
MILLEDGEVILLE* CLEAR     61  59  94 E3        30.27S
$$

GAZ099>101-110>166-170400-
SOUTH GEORGIA

CITY           SKY/WX    TMP DP  RH WIND       PRES   REMARKS
SAVANNAH       CLOUDY    59  56  89 E8        30.31S FOG
VALDOSTA       CLEAR     54  51  90 CALM      30.27R
ALMA           CLOUDY    64  60  87 E5        30.28R
ST SIMONS      FOG       60  60 100 NE7       30.29S VSB 1/2
FT STEWART     FOG       58  57  97 E6        30.28S VSB 1
ALBANY         CLEAR     57  53  86 CALM      30.27S
HUNTER AFB     PTCLDY    57  57 100 E6        30.29S FOG
MOODY AFB      PTCLDY    59  52  78 CALM      30.25S
BRUNSWICK      FOG       61  61 100 NE6       30.31S VSB 1/4


CITY           SKY/WX    TMP DP  RH WIND       PRES   REMARKS
BAINBRIDGE*    CLEAR     57  54  88 CALM      30.25S
MOULTRIE*      CLEAR     59  54  82 CALM      30.27F
VIDALIA*       MOCLDY    63  61  94 SE7       30.28F
WAYCROSS*      CLOUDY    66  66 100 SE6       30.29R
DOUGLAS*       PTCLDY    61  54  77 CALM      30.29S
$$




USA.gov is the U.S. government's official web portal to all federal, state and local government web resources and services.